This is the latest recevied weather packets stored in our database for station/object WP3OF-2. If no packets are shown the sender has not sent any weather packets the latest 10 day(s).
| Time | Temp. | Humidity | Pressure | Rain* | Wind** | Luminosity | Snow |
|---|---|---|---|---|---|---|---|
| 1778091795 | 24.44° C | 81% | 1026.7 hPa | 0 mm | - | 749 W/m² | - |
| 1778091488 | 23.89° C | 82% | 1026.7 hPa | 0 mm | - | 757 W/m² | - |
| 1778091185 | 23.89° C | 80% | 1026.7 hPa | 0 mm | - | 764 W/m² | - |
| 1778090882 | 23.89° C | 79% | 1027.1 hPa | 0 mm | - | 777 W/m² | - |
| 1778090578 | 23.89° C | 79% | 1027.1 hPa | 0 mm | - | 770 W/m² | - |
| 1778090275 | 24.44° C | 80% | 1027.1 hPa | 0 mm | - | 780 W/m² | - |
| 1778089972 | 23.89° C | 79% | 1027.4 hPa | 0 mm | - | 782 W/m² | - |
| 1778089669 | 23.89° C | 80% | 1027.4 hPa | 0 mm | - | 794 W/m² | - |
| 1778089366 | 23.89° C | 79% | 1027.4 hPa | 0 mm | - | 804 W/m² | - |
| 1778089064 | 23.33° C | 80% | 1027.4 hPa | 0 mm | - | 783 W/m² | - |
| 1778088760 | 23.89° C | 84% | 1027.4 hPa | 0 mm | - | 822 W/m² | - |
| 1778088456 | 23.89° C | 84% | 1027.9 hPa | 0 mm | - | 802 W/m² | - |
| 1778088153 | 24.44° C | 82% | 1027.9 hPa | 0 mm | - | 909 W/m² | - |
| 1778087845 | 23.89° C | 83% | 1027.9 hPa | 0 mm | - | 826 W/m² | - |
| 1778087543 | 23.89° C | 82% | 1028.2 hPa | 0 mm | - | 899 W/m² | - |
| 1778087240 | 23.89° C | 82% | 1028.2 hPa | 0 mm | - | 953 W/m² | - |
| 1778086936 | 23.89° C | 81% | 1028.2 hPa | 0 mm | - | 1028 W/m² | - |
| 1778086635 | 23.89° C | 83% | 1028.2 hPa | 0 mm | - | 745 W/m² | - |
| 1778086332 | 23.89° C | 83% | 1028.5 hPa | 0 mm | - | 264 W/m² | - |
| 1778086029 | 25° C | 81% | 1028.2 hPa | 0 mm | - | 437 W/m² | - |
| 1778085726 | 23.89° C | 83% | 1028.2 hPa | 0 mm | - | 944 W/m² | - |
| 1778085422 | 24.44° C | 83% | 1028.2 hPa | 0 mm | - | 428 W/m² | - |
| 1778085117 | 23.89° C | 84% | 1028.2 hPa | 0 mm | - | 965 W/m² | - |
| 1778084813 | 24.44° C | 83% | 1028.5 hPa | 0 mm | - | 308 W/m² | - |
| 1778084511 | 24.44° C | 83% | 1028.5 hPa | 0 mm | - | 909 W/m² | - |
* Rain latest hour (hover to see other rain measurements)
** Current wind speed in m/s (hover to see current wind gust speed)